Weather History for Edinburgh Airport, United Kingdom

Change the Weather History Date:

Saturday, November 9, 2013

  Actual Average Record
Temperature  
Mean Temperature 36 °F -  
Max Temperature 42 °F 47 °F 59 °F (1998)
Min Temperature 30 °F 35 °F 28 °F (1996)
Degree Days  
Heating Degree Days 29    
Moisture  
Dew Point 34 °F    
Average Humidity 93    
Maximum Humidity 100    
Minimum Humidity 81    
Precipitation  
Precipitation 0.00 in 0.08 in - ()
Sea Level Pressure  
Sea Level Pressure 29.52 in    
Wind  
Wind Speed 7 mph ()    
Max Wind Speed 13 mph    
Max Gust Speed -    
Visibility 6.2 miles    
Events Rain    
Averages and records for this station are not official NWS values.
T = Trace of Precipitation, MM = Missing Value Source: Averaged Metar Reports

Daily Weather History Graph

Daily Weather History Graph

Search for Another Location

Airport:

Trip Planner

Search our weather history database for the weather conditions in past years. The results will help you decide how hot, cold, wet, or windy it might be!

Date:

Astronomy

Nov. 09, 2013 Rise Set
Actual Time 7:37 AM GMT 4:16 PM GMT
Civil Twilight 6:56 AM GMT 4:57 PM GMT
Nautical Twilight 6:11 AM GMT 5:42 PM GMT
Astronomical Twilight 5:27 AM GMT 6:25 PM GMT
Moon 12:56 PM GMT (11/9) 10:42 PM GMT (11/9)
Length of Visible Light 10h 01m
Length of Day
8h 38m
Waxing Crescent, 41% of the Moon is Illuminated
Nov 9
Waxing Crescent
Nov 10
First Quarter
Nov 17
Full
Nov 25
Last Quarter
Dec 3
New

Hourly Weather History & Observations

Time (GMT) Temp. Windchill Dew Point Humidity Pressure Visibility Wind Dir Wind Speed Gust Speed Precip Events Conditions
12:20 AM 37.4 °F 30.3 °F 35.6 °F 93% 29.53 in 6.2 mi WSW 10.4 mph - N/A   Partly Cloudy
12:50 AM 37.4 °F 31.4 °F 35.6 °F 93% 29.53 in 6.2 mi West 8.1 mph - N/A   Partly Cloudy
1:20 AM 37.4 °F 32.1 °F 35.6 °F 93% 29.53 in 6.2 mi WSW 6.9 mph - N/A   Partly Cloudy
1:50 AM 35.6 °F 32.8 °F 35.6 °F 100% 29.53 in 6.2 mi Variable 3.5 mph - N/A   Partly Cloudy
2:20 AM 35.6 °F 32.8 °F 33.8 °F 93% 29.53 in - Variable 3.5 mph - N/A   Clear
2:50 AM 35.6 °F 31.7 °F 33.8 °F 93% 29.53 in - West 4.6 mph - N/A   Clear
3:20 AM 33.8 °F 29.6 °F 32.0 °F 93% 29.50 in - WSW 4.6 mph - N/A   Clear
3:50 AM 33.8 °F 29.6 °F 33.8 °F 100% 29.50 in 6.2 mi West 4.6 mph - N/A   Partly Cloudy
4:20 AM 33.8 °F 28.6 °F 32.0 °F 93% 29.50 in 6.2 mi WSW 5.8 mph - N/A   Scattered Clouds
4:50 AM 35.6 °F 29.9 °F 33.8 °F 93% 29.50 in 6.2 mi WSW 6.9 mph - N/A   Scattered Clouds
5:20 AM 33.8 °F 27.0 °F 32.0 °F 93% 29.50 in 6.2 mi WSW 8.1 mph - N/A   Partly Cloudy
5:50 AM 35.6 °F 28.6 °F 33.8 °F 93% 29.50 in 6.2 mi WSW 9.2 mph - N/A   Partly Cloudy
6:20 AM 35.6 °F 31.7 °F 33.8 °F 93% 29.50 in 6.2 mi West 4.6 mph - N/A   Partly Cloudy
6:50 AM 33.8 °F 26.4 °F 32.0 °F 93% 29.50 in 6.2 mi WSW 9.2 mph - N/A   Scattered Clouds
7:20 AM 33.8 °F 26.4 °F 33.8 °F 100% 29.50 in 6.2 mi WSW 9.2 mph - N/A   Partly Cloudy
7:50 AM 33.8 °F 26.4 °F 32.0 °F 93% 29.50 in 6.2 mi WSW 9.2 mph - N/A   Partly Cloudy
8:20 AM 33.8 °F 25.8 °F 33.8 °F 100% 29.50 in 6.2 mi WSW 10.4 mph - N/A   Partly Cloudy
8:50 AM 35.6 °F 29.2 °F 33.8 °F 93% 29.50 in 6.2 mi WSW 8.1 mph - N/A   Scattered Clouds
9:20 AM 39.2 °F 32.5 °F 35.6 °F 87% 29.50 in 6.2 mi SW 10.4 mph - N/A   Mostly Cloudy
9:50 AM 39.2 °F 31.6 °F 37.4 °F 93% 29.50 in 6.2 mi WSW 12.7 mph - N/A Rain Light Rain
10:20 AM 39.2 °F 33.0 °F 37.4 °F 93% 29.50 in 6.2 mi WSW 9.2 mph - N/A   Scattered Clouds
10:50 AM 41.0 °F 34.7 °F 39.2 °F 93% 29.50 in 6.2 mi SW 10.4 mph - N/A   Scattered Clouds
11:20 AM 42.8 °F 37.0 °F 39.2 °F 87% 29.50 in 6.2 mi SW 10.4 mph - N/A Rain Light Rain
11:50 AM 42.8 °F 38.0 °F 39.2 °F 87% 29.50 in 6.2 mi West 8.1 mph - N/A   Mostly Cloudy
12:20 PM 42.8 °F 38.6 °F 39.2 °F 87% 29.50 in 6.2 mi West 6.9 mph - N/A Rain Light Rain
12:50 PM 41.0 °F 35.8 °F 37.4 °F 87% 29.50 in 6.2 mi WSW 8.1 mph - N/A   Mostly Cloudy
1:20 PM 41.0 °F 34.3 °F 37.4 °F 87% 29.50 in 6.2 mi WSW 11.5 mph - N/A   Mostly Cloudy
1:50 PM 42.8 °F 36.6 °F 37.4 °F 81% 29.47 in 6.2 mi WSW 11.5 mph - N/A   Mostly Cloudy
2:20 PM 41.0 °F 37.1 °F 37.4 °F 87% 29.47 in 6.2 mi West 5.8 mph - N/A   Scattered Clouds
2:50 PM 41.0 °F 34.7 °F 37.4 °F 87% 29.47 in 6.2 mi WSW 10.4 mph - N/A   Scattered Clouds
3:20 PM 39.2 °F 33.6 °F 37.4 °F 93% 29.47 in 6.2 mi WSW 8.1 mph - N/A   Partly Cloudy
3:50 PM 39.2 °F 33.0 °F 37.4 °F 93% 29.50 in 6.2 mi WSW 9.2 mph - N/A   Partly Cloudy
4:20 PM 37.4 °F 32.8 °F 35.6 °F 93% 29.50 in 6.2 mi West 5.8 mph - N/A   Partly Cloudy
4:50 PM 37.4 °F 33.8 °F 33.8 °F 87% 29.50 in 6.2 mi West 4.6 mph - N/A   Scattered Clouds
5:20 PM 33.8 °F 29.6 °F 33.8 °F 100% 29.50 in 6.2 mi WSW 4.6 mph - N/A   Scattered Clouds
5:50 PM 33.8 °F 28.6 °F 32.0 °F 93% 29.50 in 6.2 mi WSW 5.8 mph - N/A   Scattered Clouds
6:20 PM 33.8 °F 28.6 °F 32.0 °F 93% 29.53 in 6.2 mi SW 5.8 mph - N/A   Scattered Clouds
6:50 PM 32.0 °F 24.8 °F 32.0 °F 100% 29.53 in - SW 8.1 mph - N/A   Clear
7:20 PM 33.8 °F 28.6 °F 32.0 °F 93% 29.53 in 6.2 mi WSW 5.8 mph - N/A   Partly Cloudy
7:50 PM 30.2 °F 22.6 °F 30.2 °F 100% 29.53 in 6.2 mi WSW 8.1 mph - N/A   Partly Cloudy
8:20 PM 32.0 °F 25.6 °F 30.2 °F 93% 29.53 in 6.2 mi WSW 6.9 mph - N/A   Partly Cloudy
8:50 PM 32.0 °F 24.8 °F 30.2 °F 93% 29.56 in - WSW 8.1 mph - N/A   Clear
9:20 PM 30.2 °F 25.4 °F 30.2 °F 100% 29.56 in - West 4.6 mph - N/A   Clear
9:50 PM 32.0 °F 26.4 °F 30.2 °F 93% 29.56 in - WSW 5.8 mph - N/A   Clear
10:20 PM 30.2 °F 24.3 °F 30.2 °F 100% 29.59 in - WSW 5.8 mph - N/A   Clear
10:50 PM 30.2 °F 23.4 °F 30.2 °F 100% 29.59 in - WSW 6.9 mph - N/A   Clear
11:20 PM 30.2 °F 23.4 °F 30.2 °F 100% 29.62 in - WSW 6.9 mph - N/A   Clear
11:50 PM 32.0 °F - 30.2 °F 93% 29.65 in 6.2 mi SW 2.3 mph - N/A   Unknown